Weather in Demenevo

Russia / Perm Krai     56°43′58″N   56°11′00″E
temp.,
°C
wind,
m/s
gust,
m/s
humid.,
%
clouds,
%
prec.,
mm/h
press.,
hPa
HPBL,
m
3 august, tue
tue323:00+19sw386819 0.1 1013130
02:00+17w1179100 0.5 101312
05:00+16s2279100 0.6 101313
08:00+20s226999 0.1 101383
11:00+27wsw354768 0.1 1013532
14:00+30w2437100 0.0 10121600
17:00+31wsw23355 0.0 10122470
20:00+26sse22565 0.0 101113
4 august, wed
wed423:00+21se22600 0.0 101113
02:00+19sse22650 0.0 101221
05:00+18sse22665 0.0 101122
08:00+22se23605 0.0 1011118
11:00+25sw2461100 0.5 1012306
14:00+30ssw344091 0.0 1011846
17:00+30ne22435 0.0 1009680
20:00+26sse376565 0.0 1009176
5 august, thu
thu523:00+20ese0060100 0.0 100811
02:00+18sse356581 0.0 100986
05:00+17sw39685 0.0 1009213
08:00+18wsw5888100 0.0 1010534
11:00+22wnw676343 0.0 1010813
14:00+24wnw67543 0.0 10101313
17:00+22nw6757100 0.0 10121513
20:00+18nw587680 0.0 1013785
6 august, fri
fri623:00+16nw597491 0.0 1013904
02:00+12nw4119594 0.0 1013407
05:00+11nw3109596 0.0 1014299
08:00+14nw597592 0.0 1015434
11:00+19nw685524 0.0 10151080
14:00+21nw56446 0.0 10151659
17:00+21nw55425 0.0 10151751
20:00+18nw3855100 0.0 1016335
7 august, sat
sat723:00+12nw237478 0.0 101649
02:00+10wnw228079 0.0 101732
05:00+9nw2287100 0.0 101820
08:00+14nw366749 0.0 1018288
11:00+17nw46475 0.0 10181084
14:00+20nw57415 0.0 10181414
17:00+21nw45445 0.0 10191384
20:00+17nw3658100 0.0 1019200